Regional Weather Roundup
Issued by NWS

Home | Current Version | Previous Version | Text Only | Print | Product List | Glossary Off
Versions: 1 2 3 4 5 6 7 8 9 10 11 12 13 14 15 16 17 18 19 20 21 22 23 24 25 26 27 28 29 30 31 32 33 34 35 36 37 38 39 40 41 42 43 44 45 46 47 48 49 50

517
ASUS43 KMPX 230601
RWRMN
WEATHER ROUNDUP FOR MINNESOTA
NATIONAL WEATHER SERVICE TWIN CITIES/CHANHASSEN MN
100 AM CDT THU MAR 23 2017


NOTE: "FAIR" INDICATES FEW OR NO CLOUDS BELOW 12,000 FEET WITH NO
SIGNIFICANT WEATHER AND/OR OBSTRUCTIONS TO VISIBILITY. N/A MEANS
CURRENT SKY AND/OR WEATHER CONDITIONS ARE NOT AVAILABLE.

MNZ060>063-068>070-230700-
   Twin Cities Metro

CITY           SKY/WX    TMP DP  RH WIND       PRES   REMARKS
TWIN CITIES    CLOUDY    36  16  44 SE12      30.26F
6HR MIN TEMP:  36; 6HR MAX TEMP:  38;

ST PAUL        CLOUDY    37  16  42 SE15      30.27F
CRYSTAL        CLOUDY    37  14  38 SE16      30.24F
BLAINE         CLOUDY    39  16  38 SE15      30.25F
LAKEVILLE      CLOUDY    36  21  55 SE8       30.25F
EDEN PRAIRIE   CLOUDY    38  18  44 SE14      30.24F
6HR MIN TEMP:  37; 6HR MAX TEMP:  38;

SOUTH ST PAUL  CLOUDY    37  15  41 SE8       30.27F
LAKE ELMO      CLOUDY    36  18  48 SE9       30.27F
$$
MNZ001>005-007-008-013>017-022>024-027-028-230700-
   Northwest Minnesota

CITY           SKY/WX    TMP DP  RH WIND       PRES   REMARKS
BEMIDJI        CLOUDY    32  18  56 SE17      30.12F WCI  21
HALLOCK        CLOUDY    34  27  75 S17       30.01F WCI  23
ROSEAU         MOCLDY    34  21  60 S14       30.06F WCI  24
WARROAD        CLOUDY    32  21  64 SE16      30.08F WCI  21
THIEF RVR FALL   N/A    N/A N/A N/A MISG        N/A
CROOKSTON      CLOUDY    34  23  64 S17       30.05F WCI  23
FOSSTON        CLOUDY    32  19  59 S16G23    30.07F WCI  21
DETROIT LAKES  CLOUDY    34  23  64 S17G24    30.09F WCI  23
MOORHEAD       PTCLDY    36  23  60 S22G30    30.05F
PARK RAPIDS    CLOUDY    34  17  50 SE15      30.13F WCI  24
MAHNOMEN       CLOUDY    34  21  59 S18G28    30.05F WCI  23
$$
MNZ006-009>011-018-025>026-230700-
   North Central Minnesota

CITY           SKY/WX    TMP DP  RH WIND       PRES   REMARKS
BAUDETTE       CLOUDY    31  20  63 SE14      30.10F WCI  21
FLAG ISLAND    CLOUDY    28  23  80 SE18      30.08F WCI  16
INTL FALLS     MIX PCPN  28  23  81 SE8       30.18F WCI  20
6HR MIN TEMP:  28; 6HR MAX TEMP:  34; 6HR PCP:  0.01;

WASKISH        CLOUDY    32  18  55 SE12      30.13F WCI  23
BIG FORK       CLOUDY    32  18  55 S8G18     30.17F WCI  25
LONGVILLE      CLOUDY    32  19  59 SE10G21   30.17S WCI  24
GRAND RAPIDS   CLOUDY    31  17  56 SE12      30.21S WCI  22
CRANE LAKE     LGT SNOW  27  19  74 S7G20     30.26R WCI  19
ORR            CLOUDY    28  16  59 SE9       30.18F WCI  20
COOK           CLOUDY    28  18  64 SE5       30.22F WCI  23
WALKER         CLOUDY    32  17  55 SE9       30.15S WCI  24
$$
MNZ012-019>021-037-230700-
   Northeast Minnesota

CITY           SKY/WX    TMP DP  RH WIND       PRES   REMARKS
DULUTH         FLURRIES  29  21  72 E12       30.24F WCI  19
6HR MIN TEMP:  25; 6HR MAX TEMP:  29; 6HR PCP: TRACE;

ELY            CLOUDY    27  16  63 S9        30.25F WCI  17
HIBBING        CLOUDY    28  17  63 SE10      30.21F WCI  19
EVELETH        MIX PCPN  29  16  58 SE9       30.24F WCI  20
DULUTH HARBOR  CLOUDY    34  25  69 CALM      30.29F
TWO HARBORS    CLOUDY    30  23  74 NE3       30.27F
SILVER BAY     CLOUDY    28  25  86 E3        30.28F
GRAND MARAIS     N/A     29  20  69 NE3       30.34F
G MARAIS ARPRT CLOUDY    19  14  79 E3        30.28F
$$
MNZ029>031-032-039>041-046>048-054>057-064-230700-
   West Central Minnesota

CITY           SKY/WX    TMP DP  RH WIND       PRES   REMARKS
FERGUS FALLS   CLOUDY    36  21  55 S23G29    30.12F
WHEATON        MOCLDY    36  25  64 SE22      30.08F
MORRIS         CLOUDY    36  25  64 SE22G28   30.09F
ALEXANDRIA     CLOUDY    35  21  56 S20       30.14F WCI  24
ELBOW LAKE     CLOUDY    35  23  62 SE22G30   30.10F WCI  23
WADENA         CLOUDY    34  21  60 S15       30.13F WCI  24
GLENWOOD       CLOUDY    36  21  55 SE20      30.14F
APPLETON       CLOUDY    37  25  60 SE12G20   30.11F
BENSON         CLOUDY    37  19  48 S15       30.15S
ORTONVILLE     CLOUDY    36  27  69 SE17      30.07F
MADISON        CLOUDY    37  28  70 SE17      30.09F
WILLMAR        CLOUDY    37  25  60 SE15      30.18R
$$
MNZ033>034-036-042>043-049>051-058-059-230700-
   Central Minnesota

CITY           SKY/WX    TMP DP  RH WIND       PRES   REMARKS
ST CLOUD       CLOUDY    35  18  49 SE14      30.20F WCI  26
6HR MIN TEMP:  35; 6HR MAX TEMP:  36;

SAUK CENTRE    CLOUDY    33  22  62 SE10      30.18R WCI  25
PAYNESVILLE      N/A     36  22  57 SE13G20   30.18F
AITKIN         CLOUDY    34  16  47 SE9       30.19F WCI  26
PINE RIVER     CLOUDY    34  19  55 S8        30.21R WCI  27
BRAINERD       CLOUDY    34  14  43 SE9       30.19F WCI  27
STAPLES        CLOUDY    34  18  51 S13       30.16F WCI  25
LONG PRAIRIE   CLOUDY    32  21  64 E17       30.17S WCI  21
LITTLE FALLS   CLOUDY    34  14  44 SE12      30.20R WCI  25
LITCHFIELD     CLOUDY    37  21  52 SE8G16    30.20S
BUFFALO        CLOUDY    36  18  48 SE10G17   30.23F
MAPLE LAKE     CLOUDY    37  22  56 SE12G17   30.22F
HUTCHINSON     CLOUDY    37  24  58 SE14      30.21F
$$
MNZ037-044-045-052-053-230700-
   East Central Minnesota

CITY           SKY/WX    TMP DP  RH WIND       PRES   REMARKS
PRINCETON      CLOUDY    37  12  35 SE10      30.23F
MORA           CLOUDY    34  16  47 S6        30.26S WCI  29
CAMBRIDGE      CLOUDY    37  19  48 SE7       30.23F
RUSH CITY      CLOUDY    35  14  42 SE10      30.26S WCI  27
MOOSE LAKE     CLOUDY    32  18  55 S6        30.23F WCI  26
HINCKLEY       CLOUDY    34  14  44 SE7       30.25F WCI  28
CLOQUET        CLOUDY    30  18  59 SE6       30.24F WCI  24
MCGREGOR       CLOUDY    32  19  59 SE10G18   30.21F WCI  24
$$
MNZ071>073-080-081-089-090-097-098-230700-
   Southwest Minnesota

CITY           SKY/WX    TMP DP  RH WIND       PRES   REMARKS
MONTEVIDEO     CLOUDY    36  25  64 S14G20    30.14F
GRANITE FALLS  CLOUDY    38  27  65 SE16      30.16S
CANBY          CLOUDY    39  27  62 SE13      30.10F
MARSHALL       CLOUDY    38  24  57 S18G29    30.11F
REDWOOD FALLS  CLOUDY    37  23  56 SE17G25   30.17F
OLIVIA         CLOUDY    36  23  60 S13G20    30.17S
PIPESTONE      CLOUDY    37  23  56 S16G24    30.08S
WINDOM         CLOUDY    37  23  56 SE16      30.15F
WORTHINGTON    CLOUDY    37  24  59 S18G24    30.13F
JACKSON        CLOUDY    36  23  60 SE14      30.17F
TRACY          CLOUDY    37  26  64 S15G26    30.13F
SLAYTON        CLOUDY    35  26  70 SE20G26   30.12F WCI  24
$$
MNZ065>067-074>077-082>085-091>093-230700-
   South Central Minnesota

CITY           SKY/WX    TMP DP  RH WIND       PRES   REMARKS
MANKATO        CLOUDY    36  22  56 SE15      30.21F
NEW ULM        CLOUDY    36  21  55 SE13      30.19F
ST JAMES       CLOUDY    36  25  64 SE14G21   30.21S
FAIRMONT       CLOUDY    36  24  62 S16       30.20S
GLENCOE        CLOUDY    37  25  60 SE10      30.21F
FARIBAULT      CLOUDY    37  21  52 SE12G18   30.25S
OWATONNA       CLOUDY    36  19  51 SE13G20   30.24S
WASECA         CLOUDY    36  25  64 SE13G25   30.24F
ALBERT LEA     CLOUDY    36  21  55 SE16G22   30.22F
$$
MNZ078>079-086>088-094>096-230700-
   Southeast Minnesota

CITY           SKY/WX    TMP DP  RH WIND       PRES   REMARKS
ROCHESTER      CLOUDY    34  21  59 S15       30.27F WCI  24
6HR MIN TEMP:  34; 6HR MAX TEMP:  35;

RED WING       CLOUDY    37  10  32 SE10      30.29F
STANTON        CLOUDY    38  19  45 SE14G20   30.25F
DODGE CENTER   CLOUDY    34  21  60 SE16      30.25F WCI  23
WINONA         CLOUDY    37  18  44 SE12      30.32F
AUSTIN         CLOUDY    36  21  55 SE12      30.25F
PRESTON        CLOUDY    34  18  52 SE14      30.29F WCI  25
$$
ABBREVIATIONS USED IN REMARKS
   TC - TEMPERATURES IN CELSIUS
  WCI - WIND CHILL INDEX
   HX - HEAT INDEX
  VSB - VISIBILITY
$$




USA.gov is the U.S. government's official web portal to all federal, state and local government web resources and services.